logo tempoitalia

Diretta Meteo Roma Fiumicino, Italiamercoledì 15 luglio ore 07:50

Mappa
Sereno 21 °C Sereno 24 Ore: T.min 16 T.max 27
Ponente Nord Km/h 3.7 Punto di rugiada: 15 °C Umidità: 68% Visibilità: 10 Km
Il sole sorge alle: 05:48 Il sole tramonta alle: 20:45
15 Luglio 2020 07:50 tempo osservato: Sereno Sereno 21 68 1013 vento: Nord N 3.7
15 Luglio 2020 07:20 tempo osservato: Sereno Sereno 19 77 1013 vento: Nord N 3.7
15 Luglio 2020 06:50 tempo osservato: Sereno Sereno 17 82 1013 vento: Nord N 3.7
15 Luglio 2020 05:50 tempo osservato: Sereno Sereno 16 93 1012 vento: Nord N 5.5
15 Luglio 2020 05:20 tempo osservato: Sereno Sereno 16 93 1012 vento: Nord N 5.5
15 Luglio 2020 04:50 tempo osservato: Sereno Sereno 16 93 1012 vento: Nord N 3.7
15 Luglio 2020 03:50 tempo osservato: Sereno Sereno 16 93 1012 vento: Nord N 5.5
15 Luglio 2020 03:20 tempo osservato: Sereno Sereno 17 93 1012 vento: Nord N 5.5
15 Luglio 2020 02:50 tempo osservato: Sereno Sereno 17 93 1012 vento: Nord NO 9.3
15 Luglio 2020 02:20 tempo osservato: Sereno Sereno 18 93 1012 vento: Nord N/NO 7.4
15 Luglio 2020 01:50 tempo osservato: Sereno Sereno 18 93 1012 vento: Nord N 3.7
15 Luglio 2020 01:20 tempo osservato: Sereno Sereno 19 88 1012 vento: Nord N 3.7
15 Luglio 2020 00:50 tempo osservato: Sereno Sereno 20 88 1012 vento: Nord N 1.8
15 Luglio 2020 00:20 tempo osservato: Sereno Sereno 22 83 1012 vento: Nord N 3.7
14 Luglio 2020 23:50 tempo osservato: Sereno Sereno 22 83 1012 vento: Nord O 7.4
14 Luglio 2020 23:20 tempo osservato: Sereno Sereno 22 83 1012 vento: Nord O 9.3
14 Luglio 2020 22:50 tempo osservato: Sereno Sereno 22 83 1012 vento: Nord O/SO 11.1
14 Luglio 2020 22:20 tempo osservato: Sereno Sereno 23 78 1012 vento: Nord O 11.1
14 Luglio 2020 21:50 tempo osservato: Sereno Sereno 23 73 1012 vento: Nord O/SO 13
14 Luglio 2020 20:50 tempo osservato: Sereno Sereno 24 69 1011 vento: Nord O 14.8
14 Luglio 2020 20:20 tempo osservato: Sereno Sereno 24 64 1011 vento: Nord O 18.5
14 Luglio 2020 19:50 tempo osservato: Sereno Sereno 25 61 1011 vento: Nord O 18.5
14 Luglio 2020 19:20 tempo osservato: Sereno Sereno 25 61 1011 vento: Nord O 20.3
14 Luglio 2020 18:50 tempo osservato: Sereno Sereno 26 54 1011 vento: Nord O/NO 20.3
14 Luglio 2020 17:50 tempo osservato: Sereno Sereno 26 54 1011 vento: Nord O 24
14 Luglio 2020 17:20 tempo osservato: Sereno Sereno 27 44 1011 vento: Nord O 18.5
14 Luglio 2020 16:50 tempo osservato: Sereno Sereno 27 42 1011 vento: Nord O 16.7
14 Luglio 2020 16:20 tempo osservato: Sereno Sereno 27 44 1011 vento: Nord O 18.5
14 Luglio 2020 15:50 tempo osservato: Sereno Sereno 27 47 1011 vento: Nord O 18.5
14 Luglio 2020 15:20 tempo osservato: Sereno Sereno 27 44 1011 vento: Nord O 18.5
14 Luglio 2020 14:50 tempo osservato: Sereno Sereno 27 47 1011 vento: Nord O 18.5
14 Luglio 2020 14:20 tempo osservato: Sereno Sereno 27 47 1012 vento: Nord O 18.5
14 Luglio 2020 13:50 tempo osservato: Sereno Sereno 26 47 1012 vento: Nord O 20.3
14 Luglio 2020 13:20 tempo osservato: Sereno Sereno 26 47 1012 vento: Nord O 16.7
14 Luglio 2020 12:50 tempo osservato: Sereno Sereno 26 44 1012 vento: Nord O 20.3
14 Luglio 2020 12:20 tempo osservato: Sereno Sereno 26 44 1012 vento: Nord O 18.5
14 Luglio 2020 11:50 tempo osservato: Sereno Sereno 26 44 1012 vento: Nord O/SO 16.7
14 Luglio 2020 11:20 tempo osservato: Sereno Sereno 27 42 1012 vento: Nord O 13
14 Luglio 2020 10:50 tempo osservato: Sereno Sereno 26 39 1012 vento: Nord O/NO 11.1
14 Luglio 2020 10:20 tempo osservato: Sereno Sereno 25 41 1012 vento: Nord N 5.5
14 Luglio 2020 09:50 tempo osservato: Sereno Sereno 25 41 1012 vento: Nord N 5.5
14 Luglio 2020 09:20 tempo osservato: Sereno Sereno 24 43 1012 vento: Nord N 7.4
14 Luglio 2020 08:50 tempo osservato: Sereno Sereno 23 46 1012 vento: Nord NE 9.3